Change the Weather History Date:

Tuesday, December 25, 2012

  Actual Average Record
Temperature  
Mean Temperature 33 °F 30 °F  
Max Temperature 37 °F 35 °F 45 °F (1971)
Min Temperature 28 °F 26 °F 5 °F (2006)
Degree Days  
Heating Degree Days 32 35  
Month to date heating degree days 839  
Since 1 July heating degree days 4236 3865  
Cooling Degree Days 0    
Month to date cooling degree days  
Year to date cooling degree days  
Moisture  
Dew Point 28 °F    
Average Humidity 0    
Maximum Humidity 0    
Minimum Humidity 0    
Precipitation  
Precipitation T in 0.12 in 1.08 in (1946)
Month to date precipitation 2.51 3.72  
Year to date precipitation 42.90 40.93  
Snow  
Snow T in 0.40 in 3.40 in (1970)
Month to date snowfall 4.7 9.9  
Since 1 July snowfall 13.7 22.5  
Snow Depth 1.00 in    
Sea Level Pressure  
Sea Level Pressure 29.16 in    
Wind  
Wind Speed 17 mph (SE)    
Max Wind Speed 30 mph    
Max Gust Speed 39 mph    
Visibility 10 miles    
Events Rain , Snow    
T = Trace of Precipitation, MM = Missing Value Source: NWS Daily Summary

Daily Weather History Graph

Daily Weather History Graph

Search for Another Location

Airport or City:

Trip Planner

Search our weather history database for the weather conditions in past years. The results will help you decide how hot, cold, wet, or windy it might be!

Date:

Astronomy

Dec. 25, 2012 Rise Set
Actual Time 10:17 AM AKST 5:25 PM AKST
Civil Twilight 9:31 AM AKST 6:11 PM AKST
Nautical Twilight 8:43 AM AKST 6:59 PM AKST
Astronomical Twilight 7:58 AM AKST 7:44 PM AKST
Moon 3:49 PM AKST (12/25) 7:52 AM AKST (12/25)
Length of Visible Light 8h 40m
Length of Day
7h 08m
Waxing Gibbous, 94% of the Moon is Illuminated
Dec 25
Waxing Gibbous
Dec 28
Full
Jan 4
Last Quarter
Jan 11
New
Jan 18
First Quarter

Hourly Weather History & Observations

Time (AKST) Temp. Windchill Dew Point Humidity Pressure Visibility Wind Dir Wind Speed Gust Speed Precip Events Conditions
12:53 AM 28.9 °F 16.5 °F 23.0 °F 78% 29.28 in 9.0 mi SE 18.4 mph - 0.00 in Snow Light Snow
1:53 AM 28.9 °F 16.9 °F 24.1 °F 82% 29.28 in 9.0 mi SE 17.3 mph 24.2 mph 0.00 in Snow Light Snow
3:53 AM 30.9 °F 21.2 °F 25.0 °F 79% 29.28 in 10.0 mi SE 12.7 mph - N/A   Overcast
4:53 AM 30.9 °F 19.4 °F 25.0 °F 79% 29.27 in 10.0 mi SSE 17.3 mph - 0.00 in Snow Light Snow
5:53 AM 32.0 °F 21.2 °F 25.0 °F 75% 29.26 in 9.0 mi SE 16.1 mph - 0.00 in Snow Light Snow
6:53 AM 32.0 °F 19.8 °F 25.0 °F 75% 29.26 in 9.0 mi SSE 20.7 mph - 0.00 in   Mostly Cloudy
7:53 AM 32.0 °F 20.1 °F 26.1 °F 79% 29.26 in 10.0 mi SE 19.6 mph - N/A   Clear
8:53 AM 33.1 °F 23.4 °F 27.0 °F 78% 29.26 in 10.0 mi SE 13.8 mph - N/A   Overcast
9:53 AM 33.1 °F 26.1 °F 27.0 °F 78% 29.26 in 10.0 mi ESE 8.1 mph - N/A   Mostly Cloudy
10:53 AM 33.1 °F 23.4 °F 28.0 °F 82% 29.26 in 10.0 mi SE 13.8 mph 23.0 mph N/A   Mostly Cloudy
11:53 AM 34.0 °F 22.7 °F 28.9 °F 82% 29.25 in 10.0 mi SE 19.6 mph 32.2 mph N/A   Mostly Cloudy
12:53 PM 34.0 °F 21.8 °F 30.0 °F 85% 29.22 in 10.0 mi SE 23.0 mph - N/A   Mostly Cloudy
1:53 PM 35.1 °F 22.5 °F 30.0 °F 82% 29.21 in 10.0 mi SE 26.5 mph - N/A   Mostly Cloudy
2:53 PM 35.1 °F 24.1 °F 30.9 °F 85% 29.20 in 10.0 mi SE 19.6 mph 29.9 mph N/A   Mostly Cloudy
3:53 PM 36.0 °F 24.7 °F 30.9 °F 82% 29.16 in 10.0 mi SE 21.9 mph 27.6 mph N/A   Mostly Cloudy
4:53 PM 35.1 °F 23.3 °F 30.0 °F 82% 29.13 in 10.0 mi SE 23.0 mph 28.8 mph N/A   Partly Cloudy
5:53 PM 35.1 °F 30.1 °F 30.0 °F 82% 29.12 in 10.0 mi ESE 5.8 mph - N/A   Mostly Cloudy
6:08 PM 33.8 °F 26.4 °F 30.2 °F 87% 29.10 in 10.0 mi ESE 9.2 mph - N/A   Mostly Cloudy
6:36 PM 35.6 °F 31.7 °F 30.2 °F 81% 29.10 in 10.0 mi Variable 4.6 mph - N/A   Mostly Cloudy
6:53 PM 35.1 °F 27.4 °F 28.9 °F 78% 29.08 in 10.0 mi SE 10.4 mph 18.4 mph N/A   Mostly Cloudy
7:25 PM 35.6 °F 29.9 °F 30.2 °F 81% 29.06 in 10.0 mi SSE 6.9 mph - N/A   Overcast
7:53 PM 35.1 °F - 28.9 °F 78% 29.04 in 10.0 mi Calm Calm - N/A   Scattered Clouds
8:53 PM 36.0 °F 25.6 °F 30.0 °F 79% 29.01 in 10.0 mi East 18.4 mph 26.5 mph N/A   Overcast
9:53 PM 37.0 °F 26.2 °F 30.0 °F 76% 28.95 in 10.0 mi East 21.9 mph 31.1 mph N/A   Overcast
10:53 PM 36.0 °F 24.2 °F 30.0 °F 79% 28.90 in 10.0 mi ENE 24.2 mph 33.4 mph 0.00 in   Overcast
11:53 PM 36.0 °F 25.6 °F 30.9 °F 82% 28.86 in 10.0 mi ENE 18.4 mph - 0.00 in Rain , Snow Light Rain